Printer-friendly version

IAU Minor Planet Center

Minor Planet Center

MPEC 2006-U90 : COMET P/2006 S6 (HILL)

The following Minor Planet Electronic Circular may be linked-to from your own Web pages, but must not otherwise be redistributed electronically.


Read MPEC 2006-U89 Read MPEC 2006-U91


M.P.E.C. 2006-U90                                Issued 2006 Oct. 30, 19:01 UT

     The Minor Planet Electronic Circulars contain information on unusual
         minor planets and routine data on comets.  They are published
   on behalf of Commission 20 of the International Astronomical Union by the
          Minor Planet Center, Smithsonian Astrophysical Observatory,
                          Cambridge, MA 02138, U.S.A.

             Prepared using the Tamkin Foundation Computer Network

                              MPC@CFA.HARVARD.EDU
          URL http://cfa-www.harvard.edu/iau/mpc.html  ISSN 1523-6714

                            COMET P/2006 S6 (HILL)

Observations:
    PK06S060  C2006 10 20.33723 02 55 00.73 +28 36 20.7          19.3 T EU090704
    PK06S060  C2006 10 20.34883 02 55 00.08 +28 36 24.0          18.5 T EU090704
    PK06S060  C2006 10 20.36047 02 54 59.61 +28 36 28.5          18.6 T EU090704
    PK06S060  C2006 10 25.84907 02 50 46.29 +29 04 15.8          18.1 T EU090561
    PK06S060  C2006 10 25.85353 02 50 46.05 +29 04 16.8          17.7 T EU090561
    PK06S060  C2006 10 25.85752 02 50 45.85 +29 04 18.1          18.1 T EU090561
    PK06S060  C2006 10 27.11057 02 49 43.29 +29 09 51.6          18.5 N EU090585
    PK06S060  C2006 10 27.11714 02 49 42.88 +29 09 53.5          18.4 N EU090585
    PK06S060  C2006 10 27.12252 02 49 42.62 +29 09 54.7          18.4 N EU090585
    PK06S060  C2006 10 27.12787 02 49 42.35 +29 09 56.1          18.3 N EU090585
    PK06S060  C2006 10 27.13324 02 49 42.09 +29 09 57.7          18.3 N EU090585
    PK06S060  C2006 10 27.14659 02 49 41.38 +29 10 00.9          18.2 T EU090585
    PK06S060  C2006 10 27.31774 02 49 33.05 +29 10 48.3          17.7 T EU090703
    PK06S060  C2006 10 27.32420 02 49 32.79 +29 10 50.1                 EU090703
    PK06S060  C2006 10 27.33064 02 49 32.43 +29 10 52.2                 EU090703
    PK06S060  C2006 10 27.33708 02 49 32.07 +29 10 53.5                 EU090703
    PK06S060  C2006 10 28.94545 02 48 10.40 +29 17 31.8          18.0 N EU090213
    PK06S060  C2006 10 28.94704 02 48 10.32 +29 17 32.1          18.0 N EU090213
    PK06S060  C2006 10 28.94863 02 48 10.23 +29 17 32.4          18.0 N EU090213
    PK06S060  C2006 10 30.15805 02 47 07.62 +29 22 13.7          18.3 N EU090850
    PK06S060  C2006 10 30.18077 02 47 06.38 +29 22 19.0          18.1 N EU090850
    PK06S060  C2006 10 30.20346 02 47 05.23 +29 22 23.7          17.3 N EU090850
    PK06S060  C2006 10 30.22619 02 47 03.91 +29 22 29.2          18.2 N EU090850

Observer details:
213 Observatorio Montcabre.  Observer R. Naves.  Measurer M. Campas.  0.30-m
    f/10 Schmidt-Cassegrain + CCD.
561 Piszkesteto.  Observer J. Kelemen.  0.6-m Schmidt + CCD.
585 Kiev comet station.  Observer A. Baransky.  0.7-m f/4 reflector + CCD.
703 Catalina Sky Survey.  Observer E. J. Christensen.  Measurers E. C. Beshore,
    E. J. Christensen, A. R. Gibbs, A. D. Grauer, R. E. Hill,
    R. A. Kowalski, S. M. Larson.  0.68-m Schmidt + CCD.
704 Lincoln Laboratory ETS, New Mexico.  Observers M. Bezpalko, L. Manguso,
    D. Torres, R. Kracke, H. Love, G. Spitz, J. Kistler.  Measurers J. Stuart,
    J. Kommers.  1.0-m f/2.15 reflector + CCD.
850 Cordell-Lorenz Observatory, Sewanee.  Observers D. T. Durig, L. E. Zwicker,
    M. K. Miller.  0.30-m f/9.7 Schmidt-Cassegrain + CCD.

Orbital elements:
    P/2006 S6 (Hill)
T 2006 Oct. 18.2533 TT                                  MPC
q   2.398315             (2000.0)            P               Q
n   0.1158338      Peri.   31.2448      +0.7646707      -0.6434188
a   4.167854       Node     9.0685      +0.5341720      +0.6016743
e   0.424568       Incl.   13.1772      +0.3604706      +0.4732867
P   8.51
From 111 observations 2006 Aug. 29-Oct. 30.

Brian G. Marsden             (C) Copyright 2006 MPC           M.P.E.C. 2006-U90

Read MPEC 2006-U89 Read MPEC 2006-U91


Our Web policy. Index to the CBAT/MPC/ICQ pages.


Valid HTML 4.01!